Location: Barrio Pajares
(40.5500°N, 4.1667°W)
Time: 21:09:47
(UTC+00:00)

Cosmos 2151 Rocket - Pass Details

Date: 18 April 2024
Orbit: 615 x 638 km, 82.5° (Epoch: 23 May)

Event Time Altitude Azimuth Distance (km) Brightness Sun altitude
Exits shadow 19:55:46 - 157° (SSE) 2,246 6.0 -10.9°
Reaches altitude 10° 19:56:29 10° 154° (SSE) 1,977 5.7 -11.0°
Maximum altitude 20:00:24 32° 91° (E) 1,060 4.3 -11.6°
Drops below altitude 10° 20:04:21 10° 27° (NNE) 2,002 6.2 -12.3°
Sets 20:06:45 0° 18° (NNE) 2,918 7.1 -12.7°
